Mountain Home, Arkansas, United States (72653)
Lat: 36.34N, Lon: 92.39W
Wx Zone: ARZ005
Local Info
Past Weather Observations for Saturday, July 19, 2014

NOTE: This archive is for the closest National Weather Service station to Mountain Home. Information may differ from the station used for current weather conditions.

Click here for Long-term Archive

Time Weather Temperature Dewpoint Humidity Pressure Winds Precip Visibility
23:53
Clear
64°F / 18°C 63°F / 17°C 94% 30.04 in
(1017 mb)
Calm - 7SM
22:53
Clear
64°F / 18°C 63°F / 17°C 94% 30.04 in
(1017 mb)
Calm - 9SM
21:53
Clear
66°F / 19°C 63°F / 17°C 88% 30.04 in
(1017 mb)
Calm - 9SM
20:53
Clear
70°F / 21°C 63°F / 17°C 78% 30.04 in
(1017 mb)
Calm - 10SM
19:53
Clear
70°F / 21°C 64°F / 18°C 83% 30.01 in
(1016 mb)
Calm - 9SM
18:53
Clear
73°F / 23°C 64°F / 18°C 74% 30.01 in
(1016 mb)
Calm - 9SM
17:53
Clear
79°F / 26°C 63°F / 17°C 58% 30.01 in
(1016 mb)
S 4.6 mph
(S 7 kph)
- 10SM
16:53
Clear
79°F / 26°C 61°F / 16°C 54% 30.01 in
(1016 mb)
S 4.6 mph
(S 7 kph)
- 10SM
15:53
Clear
81°F / 27°C 61°F / 16°C 51% 30.01 in
(1016 mb)
SE 5.8 mph
(SE 9 kph)
- 10SM
14:53
Mostly Cloudy
79°F / 26°C 61°F / 16°C 54% 30.04 in
(1017 mb)
ENE 3.5 mph
(ENE 6 kph)
- 10SM
13:53
Mostly Cloudy
77°F / 25°C 61°F / 16°C 57% 30.04 in
(1017 mb)
Variable 3.5 mph
(Variable 6 kph)
- 10SM
12:53
Partly Cloudy
79°F / 26°C 61°F / 16°C 54% 30.04 in
(1017 mb)
Calm - 10SM
11:53
Partly Cloudy
75°F / 24°C 61°F / 16°C 61% 30.06 in
(1018 mb)
ENE 4.6 mph
(ENE 7 kph)
- 10SM
10:53
Mostly Cloudy
75°F / 24°C 61°F / 16°C 61% 30.06 in
(1018 mb)
E 5.8 mph
(E 9 kph)
- 10SM
10:14
Partly Cloudy
73°F / 23°C 61°F / 16°C 65% 30.06 in
(1018 mb)
Calm - 10SM
09:53
Mostly Cloudy
73°F / 23°C 63°F / 17°C 69% 30.06 in
(1018 mb)
Calm - 10SM
09:40
Mostly Cloudy
72°F / 22°C 61°F / 16°C 69% 30.06 in
(1018 mb)
Calm - 10SM
09:16
Partly Cloudy
72°F / 22°C 61°F / 16°C 69% 30.06 in
(1018 mb)
Variable 4.6 mph
(Variable 7 kph)
- 10SM
08:53
Mostly Cloudy
72°F / 22°C 63°F / 17°C 73% 30.06 in
(1018 mb)
Variable 3.5 mph
(Variable 6 kph)
- 10SM
07:53
Clear
66°F / 19°C 63°F / 17°C 88% 30.09 in
(1019 mb)
Variable 3.5 mph
(Variable 6 kph)
- 8SM
06:53
Clear
Fog And Mist
63°F / 17°C 63°F / 17°C 100% 30.06 in
(1018 mb)
Calm - 4SM
06:37
Partly Cloudy
Fog And Mist
63°F / 17°C 63°F / 17°C 100% 30.06 in
(1018 mb)
Calm - 3SM
06:34
Mostly Cloudy
Fog And Mist
61°F / 16°C 61°F / 16°C 100% 30.06 in
(1018 mb)
Calm - 2SM
06:29
Obscured
Fog And Mist
61°F / 16°C 61°F / 16°C 100% 30.06 in
(1018 mb)
Calm - 3/4SM
05:59
Obscured
Fog
59°F / 15°C 59°F / 15°C 100% 30.06 in
(1018 mb)
Calm - 1/4SM
05:57
Obscured
Fog And Mist
59°F / 15°C 59°F / 15°C 100% 30.06 in
(1018 mb)
Calm - 1SM
05:53
Mostly Cloudy
Fog And Mist
57°F / 14°C 57°F / 14°C 100% 30.06 in
(1018 mb)
Calm - 5SM
05:46
Partly Cloudy
Fog And Mist
57°F / 14°C 57°F / 14°C 100% 30.06 in
(1018 mb)
Calm - 4SM
04:53
Clear
Fog And Mist
57°F / 14°C 57°F / 14°C 100% 30.04 in
(1017 mb)
Calm - 4SM
03:53
Clear
Fog And Mist
59°F / 15°C 59°F / 15°C 100% 30.04 in
(1017 mb)
Calm - 6SM
02:53
Clear
Fog And Mist
59°F / 15°C 57°F / 14°C 94% 30.04 in
(1017 mb)
Calm - 5SM
01:53
Clear
Fog And Mist
59°F / 15°C 59°F / 15°C 100% 30.04 in
(1017 mb)
Calm - 5SM
00:53
Clear
Fog And Mist
59°F / 15°C 59°F / 15°C 100% 30.04 in
(1017 mb)
Calm - 6SM
Time Weather Temperature Dewpoint Humidity Pressure Winds Precip Visibility


Weather for websites

WeatherForYou.com, LLC is not responsible for any damages or problems caused by this service. Current weather conditions are obtained from the closest station including government and personal stations which may have varying degrees of accuracy. Weather forecasts are derived from the NOAA NDFD. Like all things, this site belongs to Jesus Christ... He just trusts me to maintain it. If you have any questions or comments email webmaster@weatherforyou.com

Copyright © 2014, WeatherForYou.com LLC. All rights reserved.